Wind_Speed
18 20 21 22 23 22 22 23 22 23 23 23 24 24 25 25 26 26 26 27 27 28 28 28 28 28 28 27 27 27 28 28 29 30 30 30 30 31 31 31 31 31 31
18 18 20 20 21 22 22 21 22 22 22 22 23 23 24 25 26 26 26 27 27 28 28 28 28 28 27 27 27 28 28 28 29 30 31 31 31 31 32 32 32 32 32
16 17 18 19 20 20 21 22 22 22 22 22 22 22 23 24 25 26 26 26 27 27 27 26 26 26 26 26 27 28 29 30 30 31 32 32 31 32 32 32 32 33 32
14 15 16 17 18 18 19 20 20 21 21 22 22 22 23 24 24 25 25 25 25 26 26 26 26 26 26 27 27 29 30 30 30 30 30 31 31 31 31 31 32 32 33
14 14 15 16 17 18 18 19 20 20 20 20 21 22 23 24 24 25 25 26 25 25 26 26 27 27 27 28 29 29 29 29 29 29 30 30 31 31 31 30 31 32 33
13 14 15 16 16 17 17 18 18 19 19 20 21 22 23 24 24 24 26 26 26 26 26 26 27 27 27 28 28 28 28 28 29 29 30 31 31 32 32 32 31 32 33
11 11 12 14 15 16 16 16 17 18 19 20 21 21 22 23 24 24 25 25 25 25 25 25 26 27 27 28 27 27 27 28 29 29 31 31 31 32 33 33 32 32 32
11 11 12 13 13 15 15 15 16 17 17 19 19 20 21 22 22 23 24 24 24 24 24 26 26 26 26 26 25 26 27 28 28 29 30 31 31 32 32 32 31 31 31
10 11 11 12 13 14 14 14 15 15 16 17 18 19 20 21 21 22 22 22 23 23 24 24 25 25 25 24 25 25 26 26 27 28 29 30 30 30 30 30 30 31 30
9 10 10 12 13 13 13 13 14 15 16 16 17 18 19 20 20 20 20 21 22 22 23 23 24 23 24 24 25 25 25 25 25 26 27 27 28 29 29 30 30 30 31
10 10 11 12 13 13 13 13 14 14 15 16 17 18 18 18 19 19 20 20 21 22 22 23 23 23 23 24 24 24 24 25 25 26 27 27 27 28 28 29 30 30 31
9 10 11 12 13 13 14 14 14 14 15 15 16 16 17 17 19 20 20 21 22 22 22 22 22 22 23 23 24 23 24 25 26 26 27 27 27 27 28 29 29 30 31
9 10 10 11 12 13 13 13 13 13 14 15 15 16 17 18 19 20 20 20 21 21 21 21 22 21 22 22 22 23 24 25 25 25 26 27 28 27 28 28 29 30 30
10 10 10 10 11 12 12 12 12 13 13 14 15 15 17 18 19 19 20 20 21 21 20 21 21 21 21 21 22 23 24 24 24 26 27 27 28 28 28 29 29 30 30
11 9 10 11 12 12 12 12 12 13 13 14 14 15 17 18 19 19 20 19 20 20 20 21 21 21 21 21 23 24 24 24 25 26 27 28 28 29 29 29 30 30 30
11 11 11 12 12 12 12 12 12 12 12 13 14 16 18 19 20 19 19 19 19 20 20 20 21 21 21 22 23 23 24 25 25 26 27 28 28 28 28 29 30 30 29
12 11 11 11 12 13 13 12 12 12 13 13 15 16 17 19 19 18 18 19 19 19 20 21 21 21 21 22 23 24 25 25 25 26 27 28 28 28 28 28 29 29 29
12 12 12 12 12 13 12 12 12 12 13 14 15 17 18 19 18 18 18 18 18 19 19 20 21 22 22 23 24 25 25 25 26 26 26 27 27 27 27 27 27 27 27
12 12 12 13 13 12 12 12 12 12 13 14 15 17 17 18 18 18 17 17 17 18 19 20 21 22 23 23 24 25 25 25 25 25 25 26 27 26 26 26 25 26 26
11 11 11 11 11 11 11 11 12 13 14 14 15 16 16 17 18 17 17 18 18 18 20 21 22 23 24 24 24 24 24 25 25 25 25 25 25 25 25 24 24 24 23
11 10 10 10 10 10 10 11 11 12 13 14 15 15 15 16 17 16 17 17 18 19 20 21 22 24 24 24 24 24 24 25 25 25 26 25 25 25 24 24 23 23 22
11 11 10 10 10 9 10 10 11 11 12 13 14 15 15 16 16 16 17 18 19 19 20 20 22 23 24 24 24 24 24 25 25 25 26 25 25 25 25 24 23 23 22
11 11 10 10 10 9 9 10 10 11 12 13 14 14 15 16 16 16 17 18 19 19 20 20 22 23 24 24 25 25 25 26 26 26 26 26 26 25 25 24 23 23 22
10 10 9 9 9 9 9 10 10 11 11 12 13 14 15 15 15 16 17 18 19 20 21 22 23 24 25 25 26 26 26 26 27 26 26 26 25 25 24 24 23 23 23
9 8 8 8 8 8 9 10 10 10 10 11 13 13 14 15 15 16 17 18 19 20 22 23 24 25 26 26 27 27 27 27 27 27 27 26 26 26 25 25 24 24 23
8 7 7 7 7 8 8 8 8 8 10 11 12 12 13 14 14 15 17 18 19 20 22 24 25 26 27 26 27 27 27 27 27 27 26 26 25 25 24 24 24 24 23
Wind_Direction
263 262 260 261 263 267 269 271 273 276 278 279 282 283 282 281 281 283 285 286 286 287 289 290 289 289 289 289 289 289 288 285 284 283 283 285 284 282 282 280 278 276 273
264 260 260 263 264 268 271 274 275 277 278 279 282 281 281 283 285 284 285 287 287 288 290 291 292 289 289 289 290 289 289 287 286 285 285 285 285 282 282 281 279 276 274
268 264 264 265 268 271 274 275 277 278 278 279 280 282 281 283 285 285 286 287 288 289 290 292 293 292 290 290 291 291 290 289 288 287 286 286 287 285 282 281 279 277 274
268 266 264 267 270 273 276 277 280 282 281 280 281 284 285 285 285 286 287 288 290 291 291 292 292 292 292 292 292 291 291 290 289 288 287 287 287 287 285 282 279 277 275
268 266 265 270 275 275 277 279 281 284 285 284 285 287 288 288 287 288 289 290 291 291 292 293 292 292 293 294 293 291 291 290 289 288 288 287 286 286 285 283 281 278 275
276 273 272 274 277 279 282 282 283 285 286 288 287 287 288 288 289 291 290 291 292 292 292 293 295 295 295 295 293 292 292 292 291 289 289 288 286 285 283 283 281 279 276
281 280 278 276 277 282 288 288 287 286 287 288 288 288 290 292 292 291 292 293 294 295 295 297 298 297 298 298 296 294 292 293 293 291 290 288 287 285 284 283 282 280 277
284 282 282 282 283 286 290 290 290 290 289 289 290 291 294 294 295 296 297 297 295 297 298 299 298 300 300 299 298 296 294 294 294 294 292 289 286 285 285 284 282 281 279
286 286 284 286 288 289 292 293 292 291 291 291 291 292 293 296 298 298 297 297 298 299 299 300 301 302 303 301 300 298 296 296 296 297 296 292 288 288 286 284 283 283 282
285 288 289 290 291 293 296 300 298 293 292 291 292 295 298 301 300 300 302 300 300 300 301 303 303 302 302 301 301 299 298 299 299 300 299 295 292 291 289 287 286 285 284
291 289 289 290 294 295 296 299 300 297 295 295 297 300 302 302 302 303 304 304 304 302 304 306 305 305 303 303 302 300 301 301 301 300 300 297 294 292 290 289 287 286 285
296 296 294 294 296 298 300 300 302 299 296 298 302 305 306 305 307 307 307 306 307 306 306 309 310 309 307 304 303 302 303 303 302 301 300 299 297 295 293 292 290 289 287
297 294 297 296 298 301 305 306 306 305 302 301 306 308 309 309 310 310 311 310 310 311 311 313 313 312 310 308 306 307 307 305 303 303 302 300 299 297 296 295 293 291 289
299 299 297 299 304 306 309 312 311 310 308 307 308 311 313 314 314 313 314 314 313 314 314 316 315 315 315 313 311 311 309 308 307 307 305 302 300 299 298 296 295 293 290
300 297 297 300 306 310 312 313 312 312 312 311 313 314 315 316 316 316 317 318 318 317 318 318 317 318 318 317 315 315 312 311 310 309 307 304 301 300 299 298 296 294 292
299 297 296 300 306 309 312 311 310 312 313 315 317 320 319 317 318 318 319 322 323 321 320 321 321 321 320 320 320 318 315 313 312 310 309 308 305 304 302 301 301 298 295
302 299 299 300 306 308 309 309 310 313 316 318 319 322 324 323 322 322 322 325 327 326 325 324 324 324 323 322 322 319 317 315 315 314 312 310 310 309 306 305 304 302 299
304 301 301 302 305 308 308 309 312 314 317 320 321 322 323 328 329 328 327 329 328 327 327 328 327 327 326 325 324 322 321 318 317 316 315 314 313 314 312 310 308 306 303
306 304 302 302 304 305 307 309 313 317 319 322 323 326 326 329 331 330 329 331 333 332 331 330 329 329 329 328 326 326 325 324 323 321 321 321 320 318 316 315 313 310 307
306 305 304 304 305 305 308 312 316 321 323 324 326 328 329 332 333 333 334 335 336 334 333 334 333 331 331 330 330 330 328 327 326 326 327 327 326 323 321 320 318 314 310
303 303 306 306 307 306 306 310 316 322 326 327 329 332 334 335 336 336 337 339 339 338 336 335 335 335 335 335 334 334 333 333 331 330 331 331 331 328 325 323 321 317 314
300 301 303 303 304 304 306 311 315 321 325 328 333 337 339 339 339 339 340 341 341 341 339 337 337 339 340 339 337 337 337 337 337 335 334 333 333 331 329 327 325 323 321
299 299 300 300 302 303 307 309 313 319 325 330 335 339 343 343 343 344 345 344 344 344 343 342 343 343 343 343 341 341 341 340 340 339 337 337 336 335 333 332 330 328 327
301 300 300 303 305 306 308 311 313 318 327 334 339 343 347 349 349 349 349 348 348 349 348 347 347 347 347 346 346 345 342 341 340 341 340 339 338 338 337 336 333 332 330
304 302 301 304 308 310 311 313 315 320 328 336 343 346 349 351 353 354 353 353 353 354 354 354 352 352 350 349 347 347 345 344 344 344 343 342 341 341 339 338 337 336 335
299 300 300 304 310 312 312 315 320 326 331 339 345 348 351 354 356 356 356 357 358 358 357 357 357 356 355 353 351 350 350 349 348 347 347 346 345 345 344 343 342 341 339
Height
5827 5827 5827 5827 5828 5828 5827 5827 5826 5826 5825 5824 5823 5822 5820 5819 5818 5816 5815 5813 5812 5810 5809 5807 5806 5804 5802 5800 5799 5797 5795 5794 5792 5790 5789 5787 5785 5784 5782 5781 5780 5779 5778
5823 5823 5823 5823 5823 5823 5822 5822 5821 5821 5819 5818 5818 5817 5815 5813 5812 5810 5809 5807 5806 5804 5803 5801 5799 5797 5795 5794 5792 5790 5789 5787 5785 5783 5781 5779 5778 5776 5774 5772 5771 5770 5769
5819 5819 5818 5819 5818 5818 5818 5817 5817 5816 5815 5814 5813 5811 5810 5808 5806 5805 5803 5801 5799 5798 5796 5794 5793 5790 5788 5787 5785 5783 5781 5779 5777 5775 5773 5771 5769 5767 5765 5763 5762 5760 5760
5815 5815 5815 5815 5815 5814 5813 5813 5812 5811 5810 5808 5807 5805 5804 5803 5801 5799 5797 5795 5793 5791 5789 5788 5786 5784 5782 5780 5778 5776 5774 5772 5770 5767 5765 5763 5760 5758 5757 5755 5753 5752 5750
5811 5811 5811 5811 5810 5810 5809 5807 5806 5805 5804 5803 5802 5800 5799 5797 5795 5793 5791 5789 5787 5785 5783 5781 5779 5777 5775 5773 5771 5769 5766 5764 5762 5760 5757 5755 5752 5750 5748 5747 5745 5743 5742
5808 5807 5807 5807 5806 5805 5804 5803 5802 5801 5799 5798 5797 5795 5794 5791 5790 5788 5786 5784 5781 5779 5777 5775 5773 5771 5769 5766 5763 5761 5759 5756 5754 5751 5749 5746 5744 5741 5739 5737 5736 5734 5733
5805 5804 5803 5803 5802 5801 5800 5799 5798 5796 5795 5793 5792 5790 5788 5786 5784 5782 5780 5778 5775 5773 5771 5769 5767 5764 5762 5759 5756 5754 5751 5749 5746 5743 5740 5737 5735 5732 5730 5728 5726 5725 5723
5802 5801 5800 5799 5799 5798 5796 5794 5793 5792 5790 5789 5787 5785 5784 5782 5779 5777 5775 5772 5770 5768 5765 5763 5761 5758 5755 5752 5749 5746 5744 5741 5739 5736 5732 5728 5726 5723 5721 5719 5717 5715 5713
5799 5798 5797 5796 5795 5794 5792 5790 5789 5788 5786 5784 5783 5781 5779 5777 5775 5772 5770 5767 5765 5762 5759 5757 5754 5751 5748 5745 5743 5740 5737 5734 5731 5728 5724 5721 5717 5714 5712 5709 5707 5706 5704
5796 5795 5794 5793 5792 5790 5788 5787 5785 5784 5782 5781 5779 5777 5775 5773 5770 5768 5765 5762 5760 5757 5754 5751 5748 5745 5742 5739 5736 5733 5730 5727 5724 5720 5717 5713 5710 5706 5704 5701 5699 5696 5695
5792 5792 5791 5790 5789 5787 5786 5784 5782 5781 5779 5777 5776 5774 5771 5769 5766 5763 5760 5758 5754 5751 5748 5745 5742 5739 5736 5733 5730 5727 5724 5721 5717 5713 5710 5706 5702 5699 5696 5693 5690 5688 5686
5789 5789 5788 5787 5786 5785 5783 5781 5780 5778 5776 5774 5772 5770 5767 5765 5762 5759 5756 5753 5749 5746 5743 5740 5736 5733 5730 5727 5724 5721 5717 5714 5710 5707 5703 5699 5695 5691 5688 5685 5682 5679 5677
5787 5786 5785 5784 5783 5781 5780 5778 5776 5775 5773 5771 5769 5767 5764 5761 5758 5755 5751 5748 5745 5741 5738 5734 5731 5728 5724 5721 5718 5714 5711 5707 5704 5700 5696 5692 5688 5684 5680 5677 5673 5670 5668
5784 5783 5782 5781 5780 5778 5777 5775 5773 5771 5769 5768 5766 5763 5760 5757 5754 5750 5747 5744 5740 5736 5733 5730 5726 5723 5719 5716 5712 5709 5705 5701 5697 5693 5689 5684 5680 5677 5673 5669 5665 5662 5659
5781 5780 5779 5778 5777 5776 5774 5772 5770 5768 5766 5765 5762 5759 5756 5753 5750 5747 5743 5740 5736 5732 5729 5725 5722 5718 5714 5711 5707 5703 5699 5695 5691 5686 5681 5677 5672 5668 5664 5661 5657 5654 5650
5778 5777 5776 5775 5774 5773 5771 5769 5767 5766 5764 5762 5759 5756 5753 5750 5747 5743 5740 5736 5732 5729 5725 5721 5717 5713 5709 5705 5702 5697 5693 5688 5684 5679 5674 5669 5665 5660 5656 5652 5648 5645 5641
5775 5774 5773 5772 5771 5770 5768 5767 5765 5763 5761 5759 5756 5754 5750 5747 5743 5740 5736 5733 5729 5725 5722 5717 5713 5709 5705 5701 5697 5692 5687 5682 5677 5673 5667 5662 5657 5653 5648 5644 5640 5636 5632
5772 5771 5770 5769 5768 5767 5765 5764 5762 5761 5759 5757 5754 5751 5748 5744 5740 5737 5733 5730 5726 5722 5718 5714 5710 5706 5701 5696 5692 5687 5681 5676 5671 5666 5661 5656 5650 5645 5641 5636 5632 5628 5623
5770 5768 5767 5766 5765 5764 5762 5761 5760 5758 5756 5754 5751 5748 5745 5742 5738 5734 5731 5727 5723 5720 5716 5711 5707 5702 5697 5692 5687 5681 5676 5670 5665 5660 5655 5649 5644 5639 5634 5629 5625 5620 5616
5767 5766 5765 5763 5762 5761 5760 5758 5757 5755 5753 5751 5748 5746 5742 5739 5735 5732 5728 5724 5720 5717 5713 5708 5703 5698 5693 5687 5682 5676 5671 5665 5660 5655 5649 5644 5638 5633 5628 5623 5618 5614 5609
5765 5763 5762 5761 5760 5758 5757 5756 5755 5753 5751 5748 5746 5743 5740 5736 5733 5729 5726 5722 5718 5714 5710 5705 5700 5695 5689 5683 5678 5672 5666 5661 5655 5649 5644 5638 5633 5628 5622 5617 5613 5608 5603
5762 5761 5760 5759 5757 5756 5755 5754 5752 5751 5749 5746 5744 5741 5738 5734 5731 5727 5724 5720 5716 5712 5707 5702 5696 5691 5685 5680 5674 5668 5662 5656 5651 5645 5639 5634 5628 5623 5617 5612 5607 5602 5597
5758 5757 5756 5756 5755 5754 5753 5751 5750 5748 5746 5744 5742 5739 5736 5732 5729 5725 5722 5718 5714 5709 5704 5699 5694 5688 5682 5676 5671 5665 5659 5653 5647 5641 5635 5630 5624 5618 5613 5607 5602 5597 5592
5755 5754 5754 5753 5752 5751 5750 5749 5747 5746 5744 5742 5740 5737 5734 5731 5727 5724 5720 5716 5712 5707 5702 5697 5691 5686 5679 5673 5667 5661 5655 5649 5643 5637 5631 5625 5620 5614 5608 5603 5598 5592 5587
5752 5751 5751 5750 5749 5749 5748 5747 5745 5743 5742 5740 5738 5735 5732 5729 5726 5722 5718 5714 5710 5706 5701 5695 5689 5683 5677 5670 5664 5658 5652 5646 5639 5633 5627 5622 5616 5610 5604 5599 5594 5588 5583
5750 5749 5749 5748 5747 5746 5746 5744 5743 5742 5740 5739 5736 5733 5731 5728 5725 5721 5717 5713 5709 5704 5699 5693 5687 5681 5674 5668 5662 5656 5649 5643 5637 5630 5624 5618 5612 5607 5601 5596 5590 5584 5579